Wind_Speed
9 9 8 9 10 11 12 11 10 10 9 9 9 8 7 5 6 7 6 9 12 12 9 8 10 10 10 11 8 7 8 9 6 4 4 5 4 3 3 4 4 3 3 1 1 3 5 5 6 7 8 8 8 7 7 7 7 7 7 6 6 6 6 5 5 3 2 1 1 1 2 3 4 5 6 7 7 8 9 9 9 10 10 11 12
10 10 9 9 10 11 11 10 10 10 10 10 9 9 9 7 6 7 9 11 12 11 9 8 9 8 8 9 7 7 8 7 5 4 4 6 4 0 2 3 3 3 3 2 1 2 3 3 4 5 7 7 8 8 8 8 8 8 7 7 6 6 6 6 5 4 3 2 1 1 1 2 3 4 4 5 6 7 7 8 8 8 9 9 10
10 10 9 10 10 10 10 10 11 11 10 10 10 9 9 8 6 8 10 11 12 12 10 8 9 8 8 9 9 9 8 6 5 4 4 6 5 3 3 3 1 2 2 2 1 1 1 2 2 3 4 4 6 7 8 8 8 9 9 7 6 6 6 6 5 5 4 3 2 2 2 2 2 3 3 4 5 5 6 6 6 6 7 7 8
11 11 10 10 11 10 10 11 11 11 10 10 10 9 9 8 7 8 11 12 11 11 10 8 9 9 8 10 12 11 9 8 7 5 4 6 6 4 1 2 1 1 2 2 2 1 0 1 1 2 3 3 4 4 5 6 6 7 8 7 6 5 5 6 6 5 4 4 3 3 3 3 3 3 3 3 3 4 4 5 5 5 5 5 6
11 11 11 11 12 12 12 12 12 11 10 9 9 10 10 9 8 9 11 12 11 11 9 8 9 10 8 10 14 14 11 10 9 8 6 6 6 5 3 1 1 2 2 2 3 2 1 0 1 1 2 3 3 3 3 3 4 4 5 5 5 5 5 6 6 6 5 5 4 4 4 4 3 3 3 3 3 3 3 3 3 3 4 4 5
11 11 11 11 12 13 14 13 12 11 10 9 10 11 11 10 10 10 11 12 12 11 10 9 11 12 11 11 15 15 13 12 12 11 10 8 6 5 4 3 2 0 1 2 3 3 3 1 1 1 2 3 2 2 3 3 3 3 3 4 4 4 4 4 6 7 7 6 6 5 5 4 4 4 4 3 3 2 2 2 2 2 3 3 4
10 10 10 10 10 12 13 12 12 11 11 11 11 12 11 12 12 12 12 13 13 12 11 12 13 14 13 12 14 13 10 12 15 14 13 11 9 8 7 6 5 2 2 2 3 3 3 2 0 1 1 2 2 2 3 3 3 3 3 3 4 4 4 4 4 6 7 8 8 7 6 6 6 5 5 4 4 3 3 2 2 2 2 3 3
9 8 8 8 8 10 11 10 11 11 10 10 10 11 13 14 14 14 13 14 14 12 12 14 16 16 15 14 14 12 8 9 13 15 15 13 12 11 10 9 7 4 3 3 4 4 4 3 1 1 1 1 1 2 2 3 3 3 3 4 4 4 5 5 4 4 5 7 7 7 7 7 7 7 6 6 5 5 4 3 2 1 1 2 2
8 7 7 7 7 8 9 9 10 10 9 10 10 12 14 14 15 15 14 14 15 14 13 15 18 17 15 15 14 13 11 9 9 12 15 14 13 12 12 11 10 8 5 4 5 4 4 3 2 1 1 1 1 1 2 2 3 3 4 4 4 4 5 5 5 4 4 5 6 7 7 8 8 8 8 7 6 6 5 3 2 2 1 1 1
7 6 6 6 7 8 8 9 9 9 9 11 12 13 13 13 15 15 15 14 14 14 15 15 18 19 16 14 12 11 12 12 11 10 11 12 12 12 12 12 12 10 8 6 5 5 4 4 3 2 1 1 2 2 2 3 2 3 3 4 4 5 5 5 5 5 4 4 5 6 7 8 9 9 9 8 7 6 5 4 3 2 2 1 0
6 5 5 6 8 9 8 9 9 9 10 12 12 12 12 13 15 15 15 15 14 15 15 14 17 19 17 14 11 10 11 12 13 13 11 10 10 10 11 11 12 11 10 9 8 7 6 6 5 4 3 2 2 2 2 2 2 2 2 3 4 5 5 6 5 5 6 6 6 6 7 8 8 9 9 8 7 6 5 4 3 3 2 2 1
6 6 6 7 8 8 7 8 8 8 9 12 13 11 11 13 15 16 15 15 15 15 14 13 15 17 16 15 13 13 14 11 11 14 13 12 10 9 9 9 9 10 11 11 10 9 9 9 8 7 6 5 4 4 4 4 4 2 2 3 4 5 5 6 6 6 7 6 6 6 6 7 8 8 8 7 7 6 6 5 4 4 3 3 2
5 6 7 8 7 6 5 5 5 5 6 10 11 10 10 13 16 16 15 14 14 15 13 11 14 15 14 16 15 14 15 13 11 13 14 14 13 12 11 9 8 9 10 11 12 12 11 11 10 8 8 8 8 7 6 6 6 4 3 3 4 4 5 6 7 7 6 6 6 6 5 5 6 6 6 6 6 6 6 5 5 4 4 4 3
6 6 7 7 7 5 4 3 3 4 5 6 7 9 10 12 15 15 14 13 13 14 13 11 12 13 13 15 15 15 16 15 13 13 13 14 15 15 13 12 10 9 8 9 10 11 11 11 11 10 9 9 9 9 8 8 7 6 5 4 5 5 6 7 8 8 7 6 6 5 4 4 4 4 4 4 4 5 5 5 5 5 5 5 4
6 6 6 6 5 4 4 4 4 4 5 5 6 7 9 11 13 14 13 12 13 13 13 12 11 11 11 11 12 13 14 14 15 14 13 12 13 13 13 12 11 10 8 8 9 10 11 12 13 12 11 10 10 10 10 9 9 8 8 7 6 6 7 8 7 8 7 6 5 4 3 3 3 3 4 4 4 4 4 4 4 5 5 5 5
7 7 6 6 4 4 5 5 5 5 5 6 6 7 7 8 11 13 14 13 13 13 13 12 11 11 10 9 10 9 10 11 12 13 13 12 12 12 12 12 11 11 11 10 11 12 12 13 14 14 14 13 12 12 12 11 11 11 11 9 8 7 8 8 8 8 8 7 6 5 3 2 2 3 4 4 4 4 4 4 3 4 4 5 6
7 8 6 5 4 4 6 7 6 6 5 5 5 5 5 6 8 11 13 13 13 13 13 13 12 11 9 8 7 7 8 8 8 10 12 12 12 12 12 12 12 12 13 13 13 14 15 15 16 16 15 14 14 13 11 10 12 13 13 12 11 10 9 9 8 8 9 9 8 8 6 4 4 4 4 4 5 4 4 4 4 4 4 5 6
7 9 6 4 4 4 5 6 6 5 5 5 4 3 2 3 4 7 10 11 11 12 12 13 13 13 12 9 6 5 7 9 7 7 9 10 10 10 10 10 10 11 12 12 13 14 15 16 15 15 14 14 13 12 11 11 12 13 12 12 12 12 11 10 8 8 10 11 11 11 10 8 7 7 7 7 6 5 4 4 5 5 6 6 6
8 10 6 4 4 5 5 5 5 5 5 5 5 4 3 2 2 3 6 7 7 9 11 12 13 13 13 11 9 6 5 8 8 6 6 6 5 4 5 6 6 7 8 9 9 10 11 11 12 12 12 12 11 9 8 9 10 11 12 13 13 13 12 11 11 10 10 12 13 13 13 12 10 10 9 9 9 8 7 6 6 7 7 8 8
8 11 7 5 6 5 4 4 4 4 4 4 4 4 4 4 5 4 3 5 5 6 7 8 9 10 10 12 11 8 7 7 7 6 4 4 3 2 2 2 2 3 4 5 6 6 6 7 9 9 9 9 9 7 6 5 6 7 9 11 13 13 13 13 13 12 11 12 13 15 15 14 13 13 12 12 12 11 10 9 8 8 8 9 10
7 11 10 7 6 5 4 5 5 4 3 2 2 2 1 1 2 3 3 3 5 6 6 6 6 6 8 11 11 8 8 8 7 7 6 4 4 4 3 3 3 3 3 3 3 3 4 4 6 7 8 9 9 8 7 5 4 4 5 7 9 10 12 13 14 14 13 13 13 15 16 16 15 15 14 14 14 14 13 12 11 10 9 9 9
8 10 11 9 6 4 4 4 4 3 3 3 3 4 5 5 4 1 2 3 4 6 6 6 5 5 6 10 11 9 8 8 7 6 7 6 5 5 4 4 5 4 3 3 3 3 3 4 4 5 7 9 9 9 8 7 7 7 7 7 7 7 8 10 12 14 14 15 14 15 16 17 17 16 16 16 17 16 16 15 15 13 12 12 11
10 9 10 9 5 4 3 3 2 3 3 2 0 1 2 2 2 1 3 3 4 4 4 4 5 5 5 6 9 10 9 8 7 6 6 6 6 6 6 5 5 6 5 2 2 4 4 5 5 5 6 7 8 8 9 8 8 8 8 7 7 7 7 8 10 12 14 15 16 16 17 18 19 18 18 18 18 18 18 18 17 16 16 15 14
10 10 9 9 8 9 9 9 9 9 9 8 8 8 8 6 5 4 4 5 4 3 1 2 3 5 5 4 6 7 6 6 6 5 5 5 6 6 5 5 4 4 4 5 3 3 3 2 5 7 8 7 8 8 8 8 7 8 9 6 4 5 5 6 7 9 11 13 15 17 18 20 20 21 21 20 19 20 20 20 20 19 18 17 17
11 10 10 10 10 11 11 11 11 11 11 11 12 11 11 10 9 8 8 7 6 5 3 2 1 2 3 3 3 3 4 4 4 4 5 5 6 7 7 7 6 5 4 6 6 3 3 4 3 3 4 4 6 7 7 6 6 8 7 3 3 4 4 4 5 7 9 10 11 13 15 17 18 20 20 19 19 20 21 22 22 22 21 20 21
12 12 11 10 10 10 10 10 10 11 11 11 11 11 11 10 9 9 8 8 7 6 5 4 3 2 1 1 2 2 2 3 3 4 4 4 4 5 6 7 5 4 6 7 8 6 7 8 7 5 3 4 6 7 7 5 5 5 3 1 3 4 4 5 5 6 8 10 10 11 12 14 14 16 17 17 18 19 20 21 23 24 24 24 24
14 13 12 11 10 10 9 8 8 9 9 9 10 10 9 9 9 8 8 8 7 6 5 5 5 4 3 3 3 3 2 2 1 1 2 2 2 3 3 3 3 5 6 6 7 7 8 8 7 7 6 7 9 10 9 8 6 6 5 5 5 5 5 6 6 7 8 9 10 11 13 14 14 15 16 16 18 19 19 19 20 22 24 25 25
15 14 13 12 11 11 10 9 9 9 8 8 8 8 8 8 7 7 7 7 6 5 5 5 5 4 4 4 4 4 3 3 2 1 1 0 1 1 2 2 3 5 6 5 5 5 5 5 5 6 6 6 7 7 7 7 7 7 8 8 7 8 9 9 9 10 11 11 13 13 14 15 15 15 15 15 16 18 19 19 20 20 21 23 24
15 14 14 13 12 12 11 10 9 9 9 8 7 7 7 7 7 7 6 6 6 6 5 5 5 5 4 4 5 4 4 4 3 3 3 2 1 1 1 0 1 3 4 4 4 4 3 3 3 3 3 3 3 4 5 6 7 8 10 10 11 12 13 13 14 14 15 15 16 17 18 19 19 19 19 19 19 19 19 19 20 20 21 22 23
14 13 13 13 12 11 10 10 10 9 8 9 8 7 7 7 7 7 6 6 6 6 5 6 6 6 5 4 4 5 5 4 3 3 4 3 3 2 2 2 2 2 1 1 1 2 3 3 4 5 6 5 6 8 9 10 11 12 13 14 15 16 17 18 18 18 18 18 18 19 19 20 20 20 20 20 21 21 21 20 20 20 21 22 23
12 12 12 12 12 11 10 9 8 8 7 7 7 7 7 6 6 7 6 6 6 5 5 6 6 6 5 5 5 5 5 4 3 3 3 3 4 4 5 4 4 4 4 4 4 2 3 3 3 5 6 7 9 10 11 13 14 15 17 18 18 19 20 20 20 19 18 17 16 16 15 15 14 15 15 17 18 19 20 21 21 21 21 22 22
10 10 11 12 11 11 10 8 7 7 6 5 5 4 4 4 4 5 5 5 5 4 4 4 5 5 4 4 4 4 4 4 3 3 2 3 3 4 5 4 4 4 5 5 6 5 5 6 6 6 7 7 8 9 10 11 12 14 16 17 18 18 19 18 17 15 13 11 10 10 11 12 12 13 13 14 15 17 18 19 20 20 20 21 22
11 11 10 10 10 10 9 8 7 6 5 4 4 4 3 3 2 2 2 3 3 3 3 3 3 3 2 2 2 2 3 3 3 2 2 2 2 3 3 3 4 4 5 5 6 5 5 7 7 7 8 8 8 9 10 10 9 11 12 14 15 16 16 15 14 12 10 8 8 8 10 12 13 15 15 15 16 17 18 19 19 20 20 20 21
12 10 9 9 9 9 8 8 7 6 5 4 5 5 5 5 5 4 4 4 3 3 3 3 2 2 2 2 2 1 0 1 1 2 2 3 3 3 3 3 4 5 6 7 8 8 6 7 8 9 10 10 10 10 11 11 11 11 11 12 13 13 13 13 13 12 10 9 10 10 11 13 14 16 17 17 18 18 19 19 20 21 21 21 21
13 11 10 9 8 8 8 7 6 6 5 5 5 5 5 5 6 6 6 5 5 5 5 4 4 4 3 3 4 4 3 3 3 3 3 3 4 4 4 4 5 6 7 8 10 11 11 10 11 12 13 13 13 13 13 14 14 13 12 12 12 12 12 13 13 13 12 12 13 14 14 15 16 18 19 20 20 21 21 21 21 22 22 22 22
14 13 12 11 10 9 8 7 6 6 6 6 6 6 6 6 6 6 6 6 6 6 7 6 6 6 5 5 5 5 4 4 4 4 4 4 4 5 5 6 6 7 7 9 10 12 14 14 14 14 15 16 16 16 16 15 14 15 15 14 13 13 13 13 13 13 13 14 15 16 17 18 19 20 21 22 23 23 22 23 23 24 24 24 23
16 14 14 13 12 11 10 10 9 9 8 8 9 9 9 8 8 8 8 7 7 7 7 7 7 7 7 7 6 6 5 5 5 6 6 5 5 6 7 7 8 9 9 10 11 12 14 16 16 16 16 17 17 17 17 17 17 16 16 15 15 16 15 14 14 14 14 15 16 17 17 18 19 20 21 21 22 22 23 23 23 23 23 24 24
17 16 16 14 13 13 12 12 12 11 10 10 11 11 12 12 11 11 11 12 11 10 9 9 9 9 8 8 8 7 6 6 7 7 7 7 7 8 9 10 10 11 11 11 12 13 14 15 17 18 18 19 19 18 17 18 20 20 20 19 17 17 18 18 16 16 16 17 18 19 20 20 20 21 21 22 22 23 24 25 26 26 25 25 24
19 18 18 16 15 14 15 15 14 13 12 13 14 15 15 15 15 15 15 15 15 14 14 13 12 12 11 11 10 9 7 7 7 8 8 9 9 10 10 11 12 13 13 14 14 14 15 15 16 18 19 20 21 20 20 20 20 21 22 23 22 19 19 20 20 20 20 20 21 21 23 24 24 25 26 26 27 27 28 28 29 28 27 26 25
19 19 18 17 17 17 17 18 17 16 16 18 19 19 18 17 17 18 18 18 18 18 17 16 16 15 14 14 14 12 10 9 8 8 9 10 11 12 13 13 13 14 14 15 16 16 16 16 17 19 20 20 21 22 21 22 22 21 20 23 25 24 23 22 22 22 23 23 23 23 24 25 25 25 26 26 26 27 26 25 24 24 23 23 23
17 17 17 17 17 17 17 19 21 21 21 21 20 20 20 19 18 19 20 21 21 21 20 19 19 19 18 17 17 15 13 12 10 10 10 11 12 14 14 14 14 15 15 16 17 18 17 18 19 20 20 21 21 22 22 23 23 23 22 24 25 26 27 26 24 23 25 25 25 26 25 25 26 25 25 24 23 23 24 23 22 22 23 23 24
11 10 10 11 12 12 13 15 17 19 19 18 17 19 21 21 20 21 22 24 24 23 23 22 22 22 21 21 19 18 17 15 13 13 12 12 13 14 15 15 15 16 16 17 18 19 19 20 21 22 23 23 23 23 24 24 23 24 24 26 27 27 29 30 27 24 24 25 27 28 26 25 27 28 27 27 26 26 27 28 27 27 27 27 27
7 7 7 8 8 8 8 9 11 12 13 14 14 15 17 19 20 21 23 24 24 24 24 24 24 24 24 23 22 21 20 17 15 14 14 13 13 14 14 15 16 17 17 18 19 20 21 22 23 24 25 26 25 25 26 26 26 26 26 27 28 29 29 31 30 26 24 26 29 31 29 26 27 29 28 28 28 29 30 31 31 31 31 31 30
8 8 8 8 8 7 8 8 8 9 9 9 10 11 13 15 17 18 20 21 22 23 24 25 26 26 26 26 25 24 22 20 17 16 15 14 14 14 15 16 18 20 19 19 20 21 23 24 25 25 26 27 28 28 28 29 29 29 29 29 29 30 30 31 32 30 27 27 31 34 33 29 27 29 29 27 27 27 28 28 29 29 29 29 29
10 10 9 9 9 9 9 10 10 10 10 11 11 12 13 13 14 15 16 17 19 21 23 25 27 28 27 27 27 25 23 21 18 16 16 15 13 14 16 18 21 23 22 21 21 22 24 26 27 27 27 28 29 29 29 30 31 31 32 32 32 32 33 33 34 33 30 29 31 35 35 31 28 30 30 27 25 27 27 27 26 26 26 25 25
11 11 11 12 12 12 12 12 12 13 13 14 14 14 14 13 13 13 14 16 18 19 20 22 25 26 27 28 28 26 23 21 19 17 17 14 14 15 16 19 23 24 23 22 22 23 25 27 29 29 29 30 31 31 31 32 33 33 34 35 35 36 36 36 37 37 33 31 32 36 38 34 30 32 32 28 27 28 28 27 26 24 23 22 22
10 10 10 11 12 12 13 13 13 13 13 14 14 14 13 13 14 15 16 17 17 17 17 18 20 23 26 28 27 24 22 21 19 17 16 15 16 17 18 20 23 24 23 22 23 25 27 29 30 30 31 31 32 33 33 34 35 35 36 37 37 38 39 39 39 39 37 34 33 35 39 37 33 33 34 31 29 29 27 25 23 21 20 21 21
7 7 7 9 10 10 11 12 14 15 14 14 14 13 13 14 14 16 17 18 18 16 15 15 17 21 25 26 24 22 21 20 18 17 17 17 18 19 20 22 23 22 22 23 25 27 29 30 31 31 32 33 34 35 36 36 37 37 37 38 38 37 39 41 41 39 37 36 34 34 38 39 36 34 35 32 30 30 27 24 21 18 17 18 19
8 7 8 9 10 10 10 11 13 14 15 15 15 15 15 15 16 17 17 18 17 16 14 14 16 20 24 24 22 21 20 19 18 19 19 20 20 22 22 22 22 21 22 24 27 28 29 30 31 32 34 35 36 36 37 36 35 35 36 37 36 35 37 40 41 40 38 37 36 35 38 39 35 32 33 33 31 30 28 25 22 19 16 15 16
11 10 10 10 11 12 12 12 13 14 14 14 15 15 16 16 17 18 17 17 16 14 14 15 19 22 23 22 21 20 19 19 19 21 21 22 22 22 21 21 22 23 25 27 28 29 29 31 32 33 34 34 34 34 33 31 30 29 30 31 31 31 33 35 37 39 39 37 34 31 33 34 31 29 31 32 32 30 26 23 22 18 14 13 12
14 14 14 13 13 13 14 14 15 15 15 14 15 16 16 17 18 19 19 17 14 14 15 18 21 23 22 21 20 20 20 21 21 23 23 22 22 21 21 22 24 26 27 29 30 31 31 32 32 32 32 31 30 30 28 27 25 24 24 25 25 25 27 28 30 33 35 35 29 25 27 30 29 28 28 28 31 30 26 23 21 18 15 14 12
Wind_Direction
224 216 209 216 214 204 203 204 205 211 209 206 206 208 203 184 174 178 175 169 168 171 175 176 171 166 165 167 178 182 186 199 200 203 213 225 249 283 318 329 329 349 4 334 163 181 192 211 222 215 218 218 217 221 224 228 231 233 233 227 226 221 215 215 214 211 193 158 90 40 36 41 49 57 62 66 69 71 71 69 64 58 52 48 47
221 213 206 215 216 207 206 203 200 206 210 211 208 201 199 195 179 173 175 171 170 172 171 179 185 179 173 175 194 200 191 201 212 210 223 236 239 226 25 2 334 336 1 13 57 157 174 195 215 215 220 223 222 226 232 238 244 250 248 242 244 243 233 229 227 226 226 221 230 330 357 7 21 35 47 54 60 65 69 70 67 63 59 54 49
215 210 206 213 214 206 203 201 199 205 213 219 219 208 197 194 185 174 178 181 178 176 174 175 184 191 196 194 202 208 203 209 223 221 232 239 217 148 65 30 2 326 337 355 25 84 158 178 192 203 210 218 222 225 232 238 246 255 260 260 256 255 252 247 243 241 243 246 257 281 306 326 349 5 22 36 46 53 60 67 69 66 63 62 58
211 209 209 211 208 202 201 205 207 208 213 222 227 226 212 202 197 185 184 187 182 180 180 178 181 190 204 205 202 207 211 215 225 227 232 231 209 181 115 61 78 27 346 356 25 45 60 181 196 201 199 204 212 216 226 235 246 255 264 269 265 261 264 261 256 253 253 257 263 272 287 300 316 333 352 10 26 37 46 55 61 66 65 64 64
218 212 209 206 205 206 209 212 213 209 210 219 228 229 220 212 207 194 190 190 186 182 181 185 192 199 211 206 200 206 213 216 224 227 226 221 210 201 193 184 126 56 23 15 24 28 26 301 225 220 205 201 204 211 220 227 241 255 265 272 273 270 268 267 263 258 255 258 262 267 276 285 294 304 319 334 354 13 26 36 44 55 59 61 63
225 216 210 208 211 217 219 219 217 215 215 214 220 223 217 215 211 198 196 197 194 188 191 202 205 209 216 206 199 208 220 224 226 228 227 218 211 215 217 224 223 269 352 352 5 9 8 349 244 224 209 205 208 216 222 227 236 250 262 271 278 278 272 267 265 261 257 256 258 263 268 277 282 286 295 302 312 327 342 3 20 33 43 53 58
233 224 217 214 217 223 224 225 225 224 221 216 218 218 212 211 203 192 195 199 197 194 201 212 210 211 214 209 206 209 224 234 229 227 225 219 219 222 219 219 220 226 278 305 326 341 348 355 327 228 221 209 214 223 230 235 239 247 260 269 276 282 281 274 263 262 260 256 257 261 267 273 277 281 283 285 287 289 295 310 333 6 25 35 46
239 231 223 221 222 223 221 223 227 226 222 221 222 215 210 207 195 187 189 193 196 200 204 209 209 213 215 215 217 212 214 233 232 228 224 220 222 219 216 216 214 210 231 279 300 311 324 340 354 296 259 230 221 242 249 245 245 251 258 265 273 282 288 287 274 263 261 259 258 261 266 269 272 275 277 277 277 275 275 281 292 326 8 24 33
231 222 214 219 225 226 226 228 229 229 224 219 219 214 212 208 195 186 186 190 199 208 212 211 209 212 214 213 217 215 211 218 225 225 224 226 224 215 212 212 210 205 212 253 277 290 301 308 320 317 289 317 323 293 281 273 264 263 261 262 271 278 283 287 285 275 264 259 257 259 262 263 263 265 267 268 268 269 268 268 271 285 319 7 27
213 213 205 211 224 227 229 231 231 230 220 213 215 215 215 213 204 196 194 197 206 217 222 221 213 212 211 207 210 214 213 214 216 212 212 221 223 215 212 211 211 209 210 230 245 251 262 274 280 268 274 325 326 305 291 287 278 271 271 271 273 275 276 276 280 279 268 257 251 255 259 259 258 257 259 262 263 265 265 265 266 264 268 293 5
181 188 184 193 214 224 226 225 228 230 220 211 212 214 216 215 209 205 205 205 210 217 222 223 216 214 212 206 208 215 214 214 221 221 211 206 213 220 219 216 218 219 217 218 223 227 234 246 251 248 252 265 280 266 255 253 247 268 287 285 277 270 271 273 273 271 268 264 259 258 260 262 261 258 257 259 261 264 263 260 259 258 253 246 250
161 162 167 175 196 213 220 219 223 231 221 212 212 214 216 215 211 210 212 212 212 213 216 217 214 216 215 211 215 221 218 215 223 229 224 213 206 210 218 223 228 228 221 217 222 226 229 239 245 244 246 249 255 252 241 225 211 226 268 286 286 273 266 271 273 272 271 275 278 277 275 274 274 270 265 264 264 263 260 254 249 250 249 245 244
172 168 171 174 182 192 198 202 213 221 212 208 211 213 211 212 212 213 215 216 217 218 221 221 216 219 221 221 229 233 228 228 229 227 228 228 224 219 218 223 233 237 229 224 229 234 236 242 246 246 245 244 246 250 246 223 210 220 244 266 282 276 271 269 269 271 271 275 284 293 295 291 290 286 279 272 268 262 257 254 249 246 244 243 244
191 178 173 172 178 186 184 178 187 195 198 200 204 212 214 214 214 215 216 216 219 223 228 229 224 228 231 230 235 235 229 233 235 228 227 231 233 231 225 223 229 240 239 234 237 242 243 248 253 253 251 246 246 249 247 231 219 224 239 258 269 266 271 273 267 266 272 277 286 300 303 304 310 306 299 287 274 267 259 255 251 248 243 238 239
207 191 182 174 169 167 160 157 164 171 179 183 188 205 216 217 218 220 221 220 222 227 230 231 232 234 233 231 234 234 234 236 234 230 228 227 226 226 227 227 229 232 232 231 238 245 248 254 259 261 262 261 257 256 253 246 240 240 241 244 250 255 263 271 268 263 271 280 284 294 298 305 325 338 336 328 308 289 273 263 255 249 244 238 234
217 217 205 189 173 148 140 144 149 153 161 174 189 205 215 218 221 226 230 232 232 232 233 234 234 231 225 223 227 232 238 238 231 228 227 225 224 222 224 227 228 230 231 229 234 243 251 258 263 266 269 271 268 263 261 257 253 251 247 242 241 243 248 259 262 256 262 271 271 271 266 281 314 340 348 345 338 319 288 270 262 255 250 244 238
208 222 216 194 179 155 145 145 148 152 150 157 175 190 205 215 221 228 233 238 238 236 235 234 231 225 217 216 220 226 236 236 227 224 222 219 220 223 229 234 236 241 245 244 245 249 253 258 262 266 268 268 267 261 258 258 254 248 245 245 246 244 240 246 251 247 252 260 264 265 263 267 281 298 313 324 333 330 306 280 268 266 261 254 249
188 202 205 184 173 158 147 145 151 157 153 149 153 157 176 202 209 217 224 231 236 237 235 232 230 225 217 215 218 229 237 231 218 216 218 214 214 219 227 234 238 246 250 251 253 255 255 256 258 261 263 262 261 258 256 259 256 244 240 247 250 246 240 240 243 242 244 251 257 260 262 266 269 276 285 294 303 307 305 291 278 274 268 264 261
185 188 188 165 153 149 143 142 147 145 138 139 135 124 119 108 112 168 200 211 219 229 230 228 230 227 220 219 224 223 218 218 214 212 214 210 209 220 228 233 240 246 248 247 250 257 261 261 257 257 257 254 253 256 255 256 254 244 240 245 246 243 239 239 242 243 242 246 253 256 258 262 267 270 272 278 285 288 290 290 286 283 277 270 265
185 184 172 152 151 154 154 150 148 140 137 150 148 128 112 94 74 83 142 178 181 198 214 219 227 227 217 216 217 204 188 198 203 197 193 189 185 197 212 209 216 226 234 239 242 249 259 264 260 258 258 253 249 250 252 256 258 251 248 246 245 244 243 244 247 247 245 244 250 256 258 261 264 267 272 274 276 278 279 280 281 284 283 277 268
173 186 176 163 163 170 168 153 143 138 148 171 183 190 217 318 359 49 94 145 159 165 178 191 207 213 207 207 202 189 191 199 199 196 193 184 183 194 191 165 148 160 185 191 204 236 253 262 263 258 256 252 248 251 261 274 276 264 254 244 239 242 245 249 250 251 250 247 247 252 258 262 263 266 273 275 274 275 275 275 275 277 279 280 274
142 176 186 186 186 193 195 191 190 195 207 231 253 270 284 287 287 274 130 133 141 150 158 162 170 182 189 195 194 191 197 198 196 199 197 190 185 184 178 159 136 131 147 173 204 233 257 270 280 274 258 248 247 252 258 270 280 277 268 252 240 242 247 251 253 254 255 252 248 248 252 259 262 265 269 271 275 278 279 277 273 271 273 275 273
125 146 173 184 178 153 147 159 152 143 157 176 245 350 331 307 299 208 151 139 130 132 147 149 150 163 166 176 192 200 206 205 201 200 197 193 190 184 175 161 134 116 98 78 247 256 265 258 256 258 252 243 245 248 246 257 278 281 271 262 259 260 259 258 257 257 257 254 252 250 250 253 257 259 259 260 267 274 275 275 275 273 272 272 271
125 127 138 143 130 118 116 112 103 102 104 103 96 87 83 83 80 85 93 96 93 71 61 143 152 159 154 149 174 191 204 210 208 207 210 208 210 210 201 197 177 143 104 62 26 310 309 259 237 243 246 241 236 232 234 251 270 270 260 249 251 266 268 267 262 259 258 257 258 258 257 257 256 257 257 257 263 268 269 271 272 272 270 270 270
130 129 126 125 121 117 117 115 111 108 107 105 101 96 93 93 92 93 93 93 91 78 69 83 113 165 175 173 180 197 213 221 230 245 257 252 244 249 247 244 241 215 168 91 73 61 80 105 142 214 240 232 219 216 223 241 255 260 258 229 216 244 251 255 252 251 256 258 260 262 262 262 259 260 263 266 268 269 268 267 268 269 268 269 269
129 130 129 127 125 122 118 118 116 111 111 111 107 103 101 102 103 106 109 108 108 109 106 103 104 119 147 168 192 213 222 236 260 280 290 281 258 258 259 256 250 210 172 119 106 114 111 112 121 136 158 148 146 158 168 177 192 210 219 201 234 250 258 266 262 256 259 261 258 256 258 261 260 261 266 269 269 270 269 268 267 267 267 268 270
127 125 126 127 125 124 122 118 113 112 115 116 112 110 107 106 109 112 115 114 114 118 115 111 115 123 128 127 138 146 144 163 203 244 268 276 257 252 255 250 218 178 164 136 130 131 117 116 127 137 148 143 143 151 156 166 180 189 206 226 239 254 266 272 277 275 274 274 270 264 262 263 264 263 264 265 265 267 269 269 268 267 268 269 270
128 126 125 124 121 119 119 114 108 108 111 110 107 107 106 106 108 110 112 113 115 117 110 108 113 118 124 125 128 127 117 121 128 132 170 254 280 270 268 247 209 179 173 163 154 152 140 138 137 132 131 133 151 169 174 184 201 213 226 240 251 261 267 271 275 277 277 277 277 276 273 271 270 270 269 267 265 265 266 268 268 269 270 271 271
134 131 128 126 123 120 117 114 110 104 103 106 104 101 100 99 98 95 98 104 108 109 103 102 105 105 106 113 120 120 107 102 103 104 101 88 80 59 34 311 201 178 179 176 175 192 206 209 197 180 163 149 180 207 216 223 232 242 249 256 263 267 271 275 276 277 277 276 276 278 277 276 275 274 273 273 270 268 267 267 268 268 268 269 269
145 140 137 134 129 126 122 117 114 107 102 105 107 106 104 101 98 95 95 95 94 93 91 91 95 97 98 100 104 102 96 87 80 93 101 99 98 94 85 90 84 88 108 101 139 230 251 255 257 253 243 245 254 254 256 259 261 263 264 266 269 272 274 276 278 279 280 279 279 278 278 278 277 275 274 272 270 269 269 269 269 268 268 268 268
162 156 153 149 142 138 134 127 123 118 111 108 106 105 105 104 105 106 103 96 88 84 81 79 83 89 90 88 86 89 90 81 61 64 81 84 88 95 96 90 82 78 74 66 55 19 344 341 331 305 284 276 277 274 270 270 270 270 270 270 271 273 274 276 277 278 281 283 283 281 278 276 275 274 272 270 268 266 266 267 267 268 268 269 270
181 172 167 162 159 155 150 147 142 135 130 126 119 111 108 104 105 110 111 107 104 107 101 87 83 85 82 77 78 84 87 83 74 64 54 49 62 80 82 75 70 64 58 53 48 40 18 3 3 352 332 317 307 298 288 282 278 276 276 276 275 275 274 274 273 274 278 283 285 283 277 272 269 269 268 267 267 265 264 264 264 265 266 267 270
197 186 179 174 173 171 169 169 169 167 166 166 172 175 166 157 153 156 152 142 144 149 145 132 114 109 104 96 78 70 67 60 59 56 38 13 18 43 45 29 22 17 14 11 8 19 23 4 353 347 337 324 315 309 301 293 287 280 278 278 277 276 274 272 269 266 268 273 278 276 271 268 265 265 266 267 268 268 267 267 266 266 267 267 268
207 201 195 191 189 191 193 192 193 197 200 195 196 198 201 206 210 215 215 209 212 215 201 193 193 201 187 184 209 234 301 325 340 345 332 327 335 353 1 349 345 344 341 336 332 334 347 352 344 338 334 325 317 314 309 304 301 294 285 279 277 276 275 272 268 265 265 267 270 271 272 271 268 267 267 268 269 270 270 269 270 270 271 270 269
218 218 215 218 218 216 217 215 211 213 217 218 218 215 216 225 227 226 228 232 238 242 239 232 230 240 242 220 217 227 241 256 271 294 306 309 312 318 323 322 325 327 324 319 318 320 326 335 338 334 331 328 323 319 314 309 306 303 297 289 281 276 273 271 269 269 270 271 272 275 277 277 275 272 271 271 272 271 271 270 269 269 269 270 269
225 228 228 232 235 234 239 245 246 245 242 245 247 244 241 241 236 232 236 242 249 253 253 251 247 249 255 253 244 242 248 262 282 298 305 303 298 297 299 301 306 310 311 311 314 317 319 323 328 329 327 325 322 320 316 310 306 304 302 299 294 286 278 274 273 273 272 271 271 273 275 276 276 274 272 272 272 271 270 269 268 267 267 267 266
227 229 230 232 234 237 244 253 260 260 259 262 264 264 265 259 249 246 250 253 259 262 260 258 258 255 254 258 262 265 268 278 292 301 307 307 299 294 291 293 298 302 304 305 308 311 313 316 319 321 321 318 317 318 316 312 308 305 301 300 299 295 289 285 281 278 275 272 270 269 270 271 271 271 271 271 273 273 273 271 270 270 268 266 265
227 229 232 234 236 237 240 248 255 258 259 263 267 270 271 268 261 259 259 260 261 263 263 263 265 264 263 262 264 271 281 289 293 300 305 304 300 297 296 297 298 299 301 302 303 306 308 310 313 315 317 316 315 316 315 312 311 309 306 302 298 295 293 292 288 282 276 273 273 272 273 273 272 271 271 271 273 275 275 274 274 274 273 270 267
235 237 238 241 245 247 249 251 252 252 255 260 265 267 267 267 266 265 265 265 264 263 262 261 262 265 267 268 271 276 283 287 290 295 296 295 296 297 297 297 298 301 304 305 307 307 307 308 310 311 313 314 314 314 313 311 308 306 304 302 300 297 293 291 290 286 280 277 274 273 273 274 273 273 273 274 274 275 275 276 276 275 273 271 268
242 243 244 248 253 256 256 253 247 247 258 265 264 260 259 260 264 266 267 268 269 269 265 260 259 261 263 268 274 277 279 282 284 288 292 295 296 296 296 296 298 302 305 306 307 307 306 308 308 308 309 310 311 311 311 309 306 302 301 301 301 302 298 295 294 293 290 287 284 280 277 275 274 272 273 272 272 273 273 273 273 271 270 269 267
241 243 246 250 253 254 253 250 246 249 259 265 263 258 256 257 264 267 267 268 271 271 268 263 259 259 261 266 273 276 276 276 276 277 285 295 296 293 293 295 299 302 304 304 305 303 302 304 305 306 306 307 310 311 310 311 310 307 305 303 301 301 300 298 297 297 296 294 291 286 284 283 281 279 277 275 272 271 270 269 268 267 267 267 266
229 234 239 244 249 252 251 250 249 252 257 260 260 259 257 259 266 270 270 271 271 269 267 264 259 257 258 262 268 271 271 269 268 269 276 288 293 291 290 293 298 301 304 304 302 300 300 303 306 309 310 311 314 315 314 312 311 307 306 304 302 302 301 300 299 298 298 297 294 289 286 285 285 283 281 280 278 275 274 272 270 268 266 266 266
218 227 234 239 245 252 255 256 257 258 258 259 260 259 257 258 263 267 270 272 270 268 265 262 259 257 257 259 261 263 263 263 261 263 267 276 287 290 289 293 298 300 301 301 299 299 301 305 309 312 314 314 315 315 315 313 311 309 308 307 306 306 305 304 302 300 301 302 298 293 290 289 288 287 284 283 283 281 279 278 275 272 270 268 267
231 238 244 249 251 254 259 263 264 264 264 265 265 264 263 262 262 265 268 270 270 269 265 262 259 258 257 257 256 256 257 257 256 260 264 268 280 289 291 296 302 301 300 298 296 299 304 307 310 311 312 313 312 313 315 314 312 311 310 309 308 307 305 304 302 301 302 303 301 297 293 291 293 293 290 288 289 288 285 284 282 278 274 272 270
242 247 253 258 262 265 266 268 272 274 274 274 271 268 268 269 269 270 270 269 269 268 266 263 259 257 256 254 252 251 252 252 254 260 262 264 274 284 289 296 301 300 298 297 298 301 304 305 306 307 309 310 309 310 312 312 312 311 310 308 307 306 304 303 302 301 302 303 304 301 295 292 296 297 294 293 293 292 290 289 287 285 282 279 275
248 254 258 263 266 269 272 274 277 280 281 279 276 271 269 273 278 279 278 276 273 270 268 266 261 257 256 253 250 249 249 248 252 258 261 265 272 279 288 295 296 295 295 295 296 297 299 300 302 304 306 306 306 308 309 309 309 309 308 307 306 304 303 303 301 301 302 303 304 302 297 295 297 297 296 298 297 295 295 294 292 290 288 282 274
247 254 259 263 263 263 267 270 272 276 279 281 282 279 276 278 281 282 282 283 281 276 272 269 264 258 253 249 245 245 246 248 251 255 259 264 269 276 286 291 289 289 291 292 293 294 295 298 299 301 302 303 304 306 306 306 306 305 304 303 301 301 301 299 298 298 299 300 299 298 296 296 297 296 297 300 299 296 296 297 297 294 287 279 273
254 262 265 266 264 262 260 261 263 267 270 274 279 281 283 284 284 284 284 284 283 280 276 273 264 252 245 241 237 238 244 248 250 254 258 263 271 280 288 288 287 288 291 292 293 293 294 295 295 296 298 300 302 303 303 303 302 302 300 298 297 297 296 294 294 295 296 296 296 295 294 295 298 298 297 299 299 296 296 296 296 293 286 279 274
270 272 273 270 267 268 267 264 263 263 265 268 272 278 283 285 285 287 288 287 286 285 282 274 256 240 235 234 235 239 244 246 250 256 260 266 276 283 285 285 288 290 291 290 289 288 288 289 290 292 295 296 297 298 299 299 299 299 297 295 295 295 293 292 293 294 294 293 293 294 294 295 299 301 299 299 298 297 297 295 292 290 285 281 279
277 274 276 273 269 269 271 270 268 268 269 269 271 276 280 282 285 288 292 293 291 284 273 258 242 232 230 234 238 242 246 248 252 258 262 268 276 281 282 284 286 288 287 285 283 283 284 285 287 289 291 293 294 295 296 296 297 296 294 293 295 294 292 291 292 293 293 292 294 296 296 296 300 303 303 303 301 298 298 296 292 288 278 273 280
276 275 282 284 277 270 267 267 267 269 272 272 272 275 277 280 283 287 291 292 287 274 260 249 239 233 233 239 243 244 247 251 255 259 264 272 277 279 280 282 283 284 284 283 283 284 286 288 290 292 293 295 295 296 296 295 294 292 291 292 294 294 294 293 294 294 293 292 294 298 297 296 300 303 305 308 306 302 302 301 298 291 277 268 272
Height
1535 1536 1536 1537 1537 1538 1539 1539 1540 1539 1540 1540 1541 1542 1543 1544 1544 1545 1545 1546 1547 1548 1548 1549 1549 1549 1550 1551 1551 1552 1552 1553 1554 1555 1555 1556 1556 1557 1557 1557 1558 1558 1558 1558 1558 1558 1558 1559 1559 1560 1560 1560 1561 1561 1561 1561 1561 1561 1561 1561 1561 1562 1562 1562 1562 1562 1562 1562 1562 1561 1561 1561 1560 1560 1559 1559 1559 1559 1558 1558 1558 1558 1557 1557 1556
1534 1535 1535 1535 1536 1537 1538 1539 1539 1538 1539 1540 1540 1541 1542 1543 1544 1545 1545 1546 1547 1547 1548 1548 1548 1549 1549 1550 1551 1551 1552 1552 1553 1554 1555 1555 1556 1557 1557 1557 1557 1558 1558 1558 1558 1558 1558 1559 1559 1559 1559 1560 1560 1561 1561 1561 1562 1562 1562 1562 1562 1562 1562 1562 1562 1562 1562 1562 1562 1562 1561 1561 1561 1560 1560 1559 1559 1559 1559 1559 1558 1558 1558 1558 1557
1533 1534 1534 1534 1535 1536 1537 1537 1537 1538 1539 1539 1540 1540 1541 1542 1543 1544 1545 1546 1546 1546 1547 1547 1548 1549 1550 1550 1551 1551 1551 1552 1552 1553 1554 1555 1556 1556 1557 1557 1557 1557 1558 1558 1558 1558 1558 1559 1559 1559 1559 1559 1560 1560 1561 1561 1561 1561 1562 1562 1562 1562 1562 1562 1562 1562 1562 1562 1562 1562 1562 1562 1561 1561 1560 1560 1560 1559 1559 1559 1559 1559 1558 1558 1558
1532 1533 1533 1534 1534 1535 1535 1536 1537 1538 1539 1539 1539 1540 1540 1541 1543 1544 1545 1545 1546 1546 1546 1547 1547 1548 1549 1550 1551 1551 1551 1551 1552 1553 1553 1554 1555 1556 1556 1557 1557 1557 1558 1558 1558 1558 1558 1559 1559 1559 1559 1559 1559 1559 1560 1560 1561 1561 1561 1562 1562 1562 1562 1562 1562 1562 1562 1562 1562 1562 1562 1562 1562 1561 1561 1561 1560 1560 1560 1559 1559 1559 1559 1559 1559
1531 1532 1533 1533 1534 1534 1535 1535 1536 1537 1538 1538 1539 1539 1540 1541 1542 1543 1544 1545 1546 1546 1546 1546 1547 1547 1548 1549 1550 1550 1550 1550 1551 1552 1553 1554 1555 1555 1556 1557 1557 1557 1557 1557 1558 1558 1558 1558 1559 1559 1559 1559 1559 1559 1559 1560 1560 1560 1561 1561 1561 1561 1562 1562 1562 1562 1562 1562 1562 1562 1561 1561 1561 1561 1561 1561 1561 1560 1560 1559 1559 1559 1559 1559 1559
1530 1531 1532 1533 1533 1533 1534 1535 1535 1536 1537 1538 1538 1538 1539 1540 1541 1542 1544 1544 1545 1546 1545 1546 1546 1547 1547 1548 1549 1549 1549 1550 1550 1551 1552 1553 1554 1555 1556 1556 1557 1557 1557 1557 1557 1557 1558 1558 1558 1559 1559 1559 1559 1559 1559 1559 1559 1560 1560 1560 1560 1561 1561 1561 1561 1561 1561 1561 1561 1561 1561 1561 1561 1561 1561 1561 1561 1560 1560 1560 1559 1559 1559 1559 1559
1530 1531 1532 1532 1533 1533 1533 1534 1535 1536 1536 1537 1537 1538 1539 1539 1540 1542 1543 1544 1545 1545 1545 1545 1546 1546 1547 1548 1549 1549 1549 1549 1549 1550 1551 1552 1553 1554 1555 1556 1556 1557 1557 1557 1557 1557 1557 1558 1558 1558 1558 1559 1559 1559 1559 1559 1559 1559 1559 1559 1560 1560 1560 1561 1561 1561 1561 1561 1561 1561 1561 1561 1561 1561 1561 1561 1561 1560 1560 1560 1560 1560 1560 1559 1559
1529 1531 1532 1532 1532 1532 1533 1533 1534 1534 1535 1536 1536 1538 1538 1539 1540 1541 1542 1543 1544 1545 1545 1545 1546 1546 1547 1547 1548 1549 1549 1548 1548 1549 1550 1551 1552 1553 1554 1555 1555 1556 1556 1557 1557 1557 1557 1557 1558 1558 1558 1558 1558 1559 1559 1559 1558 1558 1559 1559 1559 1559 1559 1560 1560 1560 1560 1560 1560 1560 1560 1560 1560 1560 1560 1560 1560 1560 1560 1560 1560 1560 1560 1560 1560
1529 1530 1531 1531 1531 1531 1532 1532 1533 1533 1534 1535 1536 1536 1537 1539 1540 1541 1542 1543 1544 1544 1545 1545 1546 1546 1546 1547 1547 1548 1548 1548 1548 1548 1549 1550 1551 1552 1553 1554 1554 1555 1555 1556 1556 1556 1557 1557 1557 1558 1558 1558 1558 1558 1559 1559 1558 1558 1558 1558 1558 1559 1559 1559 1559 1559 1559 1559 1560 1560 1560 1560 1560 1560 1560 1560 1560 1560 1560 1560 1560 1560 1560 1560 1560
1529 1530 1530 1530 1530 1530 1531 1531 1531 1532 1533 1533 1534 1535 1536 1538 1539 1540 1541 1542 1543 1544 1544 1544 1545 1545 1546 1546 1547 1548 1548 1548 1548 1548 1548 1549 1550 1551 1552 1553 1553 1554 1554 1555 1555 1556 1556 1557 1557 1557 1558 1558 1558 1558 1558 1558 1558 1558 1558 1558 1558 1558 1558 1558 1559 1559 1559 1559 1559 1559 1559 1559 1559 1559 1559 1559 1559 1560 1560 1560 1560 1561 1561 1560 1560
1530 1529 1529 1529 1529 1529 1529 1529 1530 1530 1531 1532 1533 1534 1535 1537 1538 1539 1540 1541 1542 1543 1544 1544 1544 1545 1545 1545 1546 1547 1547 1547 1547 1547 1548 1548 1549 1550 1551 1552 1552 1553 1554 1554 1555 1555 1555 1556 1556 1557 1557 1557 1557 1557 1558 1558 1558 1558 1558 1558 1558 1558 1558 1558 1558 1558 1558 1558 1558 1558 1558 1558 1558 1558 1559 1559 1559 1559 1560 1560 1560 1560 1561 1561 1560
1530 1529 1529 1529 1529 1528 1528 1528 1529 1529 1530 1531 1533 1534 1535 1535 1536 1538 1539 1540 1541 1542 1543 1544 1544 1544 1544 1545 1545 1546 1546 1547 1547 1547 1547 1548 1548 1549 1550 1551 1551 1552 1553 1553 1554 1554 1555 1555 1555 1556 1556 1556 1557 1557 1557 1557 1557 1557 1557 1557 1557 1557 1558 1558 1558 1558 1558 1558 1558 1558 1558 1558 1558 1558 1558 1558 1559 1559 1559 1560 1560 1560 1560 1561 1560
1530 1529 1529 1529 1529 1528 1528 1529 1529 1529 1530 1530 1532 1533 1534 1535 1536 1537 1538 1540 1540 1541 1542 1543 1543 1543 1544 1544 1545 1545 1545 1546 1546 1546 1547 1547 1548 1548 1549 1549 1550 1551 1552 1552 1553 1553 1554 1555 1555 1555 1555 1556 1556 1556 1556 1556 1556 1556 1556 1557 1557 1557 1557 1557 1557 1558 1558 1558 1558 1558 1558 1558 1558 1558 1558 1558 1558 1558 1559 1559 1559 1560 1560 1560 1560
1530 1530 1529 1529 1529 1529 1529 1529 1529 1529 1529 1530 1531 1532 1533 1534 1535 1536 1537 1539 1539 1540 1541 1542 1542 1543 1543 1544 1544 1544 1545 1545 1546 1546 1546 1547 1547 1548 1548 1549 1550 1550 1551 1551 1552 1552 1553 1554 1554 1554 1555 1555 1555 1556 1556 1556 1556 1556 1556 1556 1556 1556 1556 1556 1557 1557 1557 1558 1558 1558 1557 1557 1557 1557 1557 1557 1557 1557 1558 1558 1558 1559 1559 1560 1560
1531 1530 1530 1529 1529 1529 1529 1529 1529 1529 1530 1531 1531 1531 1532 1533 1534 1535 1536 1537 1538 1539 1540 1541 1541 1542 1542 1543 1543 1543 1544 1544 1545 1546 1546 1546 1547 1547 1547 1548 1549 1549 1550 1550 1551 1551 1552 1553 1553 1553 1554 1554 1554 1555 1555 1555 1555 1556 1556 1556 1556 1556 1556 1556 1556 1556 1557 1557 1557 1557 1557 1557 1557 1557 1557 1557 1557 1557 1557 1557 1558 1558 1559 1559 1559
1532 1531 1530 1530 1529 1529 1529 1529 1529 1529 1530 1531 1531 1531 1531 1532 1532 1533 1535 1536 1537 1538 1539 1540 1541 1542 1542 1542 1543 1543 1543 1544 1544 1545 1545 1545 1546 1547 1547 1547 1547 1548 1549 1549 1550 1551 1551 1551 1552 1552 1553 1553 1553 1553 1554 1554 1554 1555 1555 1555 1555 1555 1555 1555 1556 1556 1556 1556 1557 1557 1557 1557 1557 1557 1557 1557 1556 1556 1557 1557 1557 1557 1558 1558 1559
1533 1531 1530 1530 1530 1530 1529 1529 1529 1529 1529 1530 1530 1530 1531 1531 1532 1533 1534 1535 1536 1537 1538 1539 1540 1541 1542 1542 1542 1543 1543 1543 1544 1544 1544 1545 1545 1546 1546 1546 1546 1547 1548 1548 1549 1550 1550 1550 1550 1551 1551 1551 1552 1552 1553 1553 1553 1553 1554 1554 1554 1555 1555 1555 1556 1556 1556 1556 1556 1556 1556 1556 1557 1557 1557 1556 1556 1556 1556 1556 1556 1557 1557 1557 1558
1534 1533 1532 1531 1531 1530 1530 1530 1530 1530 1530 1530 1530 1530 1531 1531 1532 1533 1534 1535 1536 1536 1537 1538 1539 1540 1541 1542 1542 1543 1543 1543 1543 1543 1544 1544 1544 1545 1545 1546 1546 1547 1547 1547 1548 1548 1549 1549 1549 1549 1549 1550 1550 1551 1551 1551 1551 1552 1552 1553 1554 1554 1554 1554 1555 1555 1555 1555 1555 1555 1555 1556 1556 1556 1556 1556 1556 1556 1556 1556 1556 1556 1556 1556 1557
1535 1534 1534 1533 1532 1531 1531 1531 1531 1531 1531 1531 1531 1531 1531 1532 1532 1533 1533 1534 1535 1536 1537 1538 1538 1539 1540 1541 1541 1542 1542 1543 1543 1543 1543 1544 1544 1544 1545 1545 1545 1546 1547 1547 1547 1547 1547 1548 1548 1548 1548 1549 1549 1550 1550 1550 1550 1550 1551 1552 1553 1553 1553 1553 1554 1554 1554 1554 1554 1554 1555 1555 1555 1555 1556 1555 1556 1556 1556 1555 1555 1555 1555 1555 1556
1536 1536 1535 1534 1534 1533 1532 1532 1532 1532 1532 1532 1532 1532 1532 1532 1533 1533 1533 1534 1535 1535 1536 1537 1537 1538 1539 1540 1540 1541 1541 1542 1543 1543 1543 1544 1544 1544 1544 1545 1545 1546 1546 1546 1547 1547 1547 1547 1547 1548 1548 1548 1549 1549 1549 1549 1549 1550 1550 1551 1552 1552 1552 1552 1553 1553 1553 1553 1553 1554 1554 1554 1554 1554 1554 1554 1555 1555 1555 1555 1555 1554 1554 1554 1554
1537 1537 1536 1536 1535 1534 1534 1533 1533 1532 1532 1532 1533 1533 1533 1533 1533 1534 1534 1534 1534 1535 1536 1536 1537 1537 1538 1539 1540 1540 1541 1542 1543 1543 1543 1543 1544 1544 1544 1544 1545 1545 1546 1546 1546 1546 1546 1547 1547 1547 1547 1548 1548 1548 1548 1548 1549 1549 1549 1550 1550 1551 1551 1551 1551 1552 1552 1552 1553 1553 1553 1553 1553 1553 1553 1553 1553 1554 1553 1553 1553 1553 1553 1553 1553
1537 1537 1537 1536 1536 1536 1535 1534 1534 1533 1533 1533 1533 1534 1534 1533 1534 1534 1535 1535 1535 1535 1536 1536 1537 1537 1538 1539 1540 1541 1541 1542 1542 1543 1543 1543 1543 1544 1544 1545 1545 1546 1546 1545 1545 1545 1545 1545 1546 1546 1546 1547 1547 1547 1548 1548 1548 1549 1549 1549 1549 1549 1549 1550 1550 1550 1551 1551 1551 1551 1551 1551 1551 1551 1551 1551 1552 1552 1552 1552 1552 1552 1552 1552 1552
1538 1538 1538 1537 1537 1536 1535 1535 1534 1534 1534 1534 1534 1534 1534 1534 1534 1535 1535 1536 1536 1536 1536 1537 1537 1538 1538 1539 1540 1541 1541 1542 1542 1542 1543 1543 1543 1544 1544 1545 1545 1546 1545 1544 1543 1543 1543 1544 1544 1545 1545 1545 1545 1546 1546 1547 1548 1548 1547 1547 1547 1548 1548 1548 1549 1549 1549 1549 1549 1549 1549 1549 1549 1550 1549 1549 1550 1550 1550 1550 1550 1550 1550 1551 1551
1539 1538 1538 1538 1537 1537 1536 1536 1535 1535 1535 1535 1535 1535 1535 1535 1535 1535 1536 1536 1537 1537 1537 1537 1538 1538 1539 1540 1540 1541 1541 1542 1542 1542 1542 1543 1543 1544 1544 1545 1545 1545 1545 1544 1543 1543 1543 1543 1543 1543 1543 1543 1543 1544 1545 1546 1546 1546 1545 1545 1545 1546 1547 1547 1547 1547 1547 1548 1548 1548 1547 1547 1547 1548 1547 1548 1548 1548 1548 1548 1548 1549 1549 1549 1549
1539 1539 1539 1538 1538 1538 1537 1537 1537 1536 1536 1536 1537 1536 1536 1536 1536 1536 1537 1537 1537 1537 1537 1538 1538 1539 1539 1540 1541 1541 1541 1542 1542 1542 1542 1542 1543 1543 1544 1544 1544 1545 1545 1544 1543 1543 1543 1542 1542 1542 1542 1542 1543 1543 1544 1544 1544 1544 1544 1544 1544 1545 1545 1545 1545 1545 1545 1546 1546 1546 1545 1545 1545 1546 1546 1546 1545 1545 1546 1546 1546 1547 1547 1547 1546
1538 1539 1539 1539 1539 1538 1538 1538 1538 1538 1538 1538 1538 1537 1537 1538 1537 1538 1538 1538 1538 1538 1538 1538 1539 1539 1539 1540 1541 1541 1541 1542 1542 1542 1542 1542 1542 1543 1543 1543 1544 1544 1544 1544 1544 1543 1543 1543 1543 1542 1543 1542 1542 1542 1542 1543 1543 1543 1543 1543 1543 1543 1544 1544 1544 1544 1544 1544 1544 1544 1544 1543 1544 1544 1544 1544 1543 1543 1544 1544 1544 1544 1545 1545 1544
1538 1538 1539 1539 1539 1539 1539 1539 1538 1538 1539 1538 1538 1538 1538 1538 1539 1539 1539 1539 1539 1539 1539 1539 1540 1540 1540 1540 1541 1541 1541 1541 1542 1542 1542 1542 1542 1542 1543 1542 1543 1544 1544 1544 1544 1544 1543 1543 1543 1543 1542 1542 1542 1542 1542 1542 1542 1542 1542 1542 1542 1543 1543 1543 1543 1543 1543 1543 1543 1543 1542 1542 1542 1542 1542 1542 1541 1541 1542 1542 1542 1542 1542 1542 1542
1538 1538 1539 1539 1539 1539 1539 1539 1539 1539 1539 1539 1539 1539 1539 1540 1540 1540 1540 1540 1540 1540 1540 1540 1541 1541 1541 1541 1541 1541 1542 1542 1542 1542 1542 1542 1542 1542 1543 1542 1542 1543 1543 1544 1544 1544 1544 1544 1543 1543 1543 1543 1542 1542 1542 1542 1542 1542 1541 1542 1542 1542 1542 1542 1542 1541 1541 1541 1541 1541 1541 1541 1540 1540 1540 1540 1539 1539 1539 1539 1539 1539 1539 1539 1540
1538 1538 1539 1539 1539 1539 1539 1539 1539 1539 1539 1539 1540 1540 1540 1541 1541 1541 1541 1541 1541 1541 1541 1541 1541 1542 1542 1542 1542 1542 1542 1542 1542 1543 1543 1543 1543 1543 1543 1542 1542 1542 1542 1543 1543 1544 1544 1544 1544 1544 1543 1543 1543 1542 1542 1542 1542 1542 1541 1541 1541 1540 1540 1540 1539 1539 1539 1539 1539 1539 1538 1538 1538 1538 1538 1537 1537 1537 1537 1537 1537 1537 1537 1537 1537
1539 1539 1539 1538 1538 1539 1539 1539 1539 1539 1539 1539 1540 1540 1541 1541 1541 1542 1542 1542 1542 1542 1542 1542 1543 1543 1543 1543 1543 1543 1543 1543 1543 1543 1543 1543 1543 1543 1543 1543 1542 1542 1542 1543 1543 1543 1544 1544 1544 1544 1544 1543 1543 1542 1542 1542 1541 1541 1541 1540 1540 1539 1538 1538 1537 1537 1537 1536 1536 1536 1536 1536 1535 1535 1535 1535 1534 1534 1534 1534 1534 1534 1534 1534 1534
1538 1538 1538 1538 1538 1538 1538 1538 1538 1538 1539 1539 1540 1540 1541 1541 1541 1542 1542 1542 1543 1543 1543 1543 1543 1544 1544 1544 1544 1544 1544 1544 1544 1544 1544 1543 1543 1543 1543 1543 1543 1543 1543 1542 1542 1543 1543 1543 1543 1543 1543 1543 1542 1542 1541 1541 1540 1539 1539 1539 1538 1537 1537 1536 1535 1535 1534 1534 1534 1534 1534 1533 1533 1533 1532 1532 1532 1532 1531 1531 1531 1531 1531 1532 1532
1538 1538 1538 1537 1537 1537 1537 1538 1538 1538 1538 1539 1539 1540 1540 1541 1541 1541 1542 1542 1542 1543 1543 1543 1544 1544 1544 1544 1545 1545 1544 1544 1544 1544 1544 1544 1544 1544 1543 1543 1543 1543 1543 1543 1543 1543 1542 1542 1542 1542 1541 1541 1541 1540 1539 1539 1538 1538 1537 1536 1536 1535 1534 1534 1533 1533 1532 1532 1532 1532 1532 1531 1531 1531 1530 1530 1530 1529 1529 1529 1529 1529 1529 1529 1529
1536 1537 1537 1537 1537 1537 1537 1537 1537 1538 1538 1538 1538 1539 1539 1540 1540 1540 1541 1542 1542 1542 1543 1543 1543 1544 1544 1544 1545 1545 1545 1545 1545 1545 1544 1544 1544 1544 1544 1544 1543 1543 1543 1543 1543 1542 1542 1542 1541 1541 1540 1540 1539 1538 1537 1537 1536 1536 1535 1534 1533 1533 1532 1531 1531 1530 1530 1530 1529 1529 1529 1529 1528 1528 1528 1528 1527 1527 1527 1527 1526 1526 1526 1526 1526
1535 1536 1536 1536 1536 1536 1536 1536 1536 1536 1537 1537 1538 1538 1538 1538 1539 1539 1540 1540 1541 1541 1542 1542 1543 1543 1544 1544 1544 1544 1544 1544 1545 1544 1544 1544 1544 1544 1544 1544 1544 1543 1543 1542 1542 1542 1542 1541 1541 1540 1539 1538 1537 1536 1535 1534 1534 1533 1533 1532 1531 1530 1529 1529 1528 1528 1527 1527 1527 1526 1526 1526 1526 1525 1525 1525 1525 1525 1525 1525 1524 1524 1524 1524 1524
1535 1535 1535 1535 1535 1535 1535 1535 1535 1535 1536 1536 1537 1537 1537 1537 1538 1538 1539 1539 1540 1540 1541 1541 1542 1542 1542 1543 1543 1544 1544 1544 1544 1544 1545 1544 1544 1544 1544 1544 1543 1543 1543 1542 1542 1541 1541 1540 1540 1539 1538 1537 1536 1535 1534 1533 1532 1531 1530 1530 1529 1528 1527 1526 1526 1525 1525 1525 1524 1524 1524 1524 1523 1523 1523 1522 1522 1522 1522 1522 1522 1522 1522 1522 1522
1534 1534 1535 1535 1535 1535 1535 1534 1534 1534 1535 1535 1535 1536 1536 1536 1537 1537 1538 1538 1538 1539 1540 1540 1541 1541 1541 1542 1542 1543 1543 1543 1543 1544 1544 1544 1544 1544 1543 1543 1543 1543 1542 1542 1541 1541 1540 1539 1539 1538 1537 1535 1535 1533 1532 1531 1530 1529 1528 1527 1527 1526 1526 1525 1524 1523 1523 1523 1523 1522 1522 1522 1521 1521 1520 1520 1520 1519 1519 1519 1519 1519 1519 1519 1518
1533 1533 1533 1534 1533 1533 1533 1533 1534 1534 1533 1533 1534 1534 1535 1535 1535 1536 1536 1537 1537 1538 1538 1539 1539 1540 1540 1541 1541 1542 1542 1542 1543 1543 1543 1543 1543 1543 1543 1543 1542 1542 1542 1541 1541 1540 1539 1538 1537 1537 1536 1535 1534 1533 1531 1529 1528 1527 1526 1526 1525 1524 1523 1523 1523 1522 1521 1521 1521 1520 1520 1520 1519 1519 1518 1518 1517 1517 1516 1516 1516 1515 1515 1515 1515
1531 1532 1532 1532 1532 1532 1532 1532 1532 1532 1532 1532 1532 1533 1533 1534 1534 1534 1535 1536 1536 1537 1537 1538 1538 1539 1539 1540 1540 1540 1541 1541 1542 1542 1542 1542 1542 1542 1542 1541 1541 1541 1541 1541 1540 1539 1539 1537 1536 1535 1534 1533 1532 1531 1530 1528 1526 1524 1523 1522 1522 1522 1521 1520 1520 1520 1519 1519 1518 1518 1517 1517 1516 1516 1516 1515 1515 1514 1513 1513 1512 1512 1511 1511 1511
1529 1530 1531 1531 1531 1531 1530 1530 1530 1530 1530 1530 1531 1531 1531 1532 1532 1532 1533 1534 1535 1535 1536 1536 1536 1537 1538 1538 1539 1539 1540 1540 1540 1540 1540 1540 1540 1540 1540 1540 1540 1540 1539 1539 1539 1538 1537 1536 1535 1534 1533 1532 1530 1529 1528 1527 1525 1523 1521 1519 1518 1519 1518 1517 1516 1516 1516 1516 1515 1515 1514 1513 1513 1513 1512 1512 1511 1511 1510 1509 1509 1508 1508 1507 1507
1527 1529 1529 1529 1529 1529 1529 1529 1529 1529 1529 1529 1529 1529 1529 1530 1530 1530 1531 1531 1532 1533 1534 1534 1535 1535 1536 1536 1537 1537 1538 1538 1538 1539 1539 1539 1539 1539 1539 1539 1538 1538 1538 1537 1537 1536 1535 1534 1534 1533 1532 1531 1529 1528 1526 1525 1523 1522 1520 1517 1515 1514 1514 1513 1513 1512 1511 1511 1511 1511 1510 1510 1509 1509 1508 1508 1508 1507 1506 1505 1505 1504 1504 1503 1503
1526 1526 1527 1527 1527 1526 1526 1526 1527 1527 1527 1527 1527 1527 1527 1527 1528 1528 1529 1529 1530 1530 1531 1532 1532 1533 1533 1534 1535 1535 1536 1536 1536 1537 1537 1537 1537 1537 1537 1537 1536 1536 1536 1535 1535 1534 1533 1532 1531 1530 1529 1529 1527 1526 1524 1523 1521 1519 1518 1516 1514 1512 1510 1510 1510 1510 1508 1507 1506 1505 1506 1505 1504 1504 1504 1503 1504 1503 1502 1502 1501 1501 1500 1500 1499
1524 1524 1524 1524 1524 1524 1524 1524 1524 1525 1525 1525 1525 1525 1525 1525 1526 1526 1526 1527 1527 1528 1528 1529 1530 1530 1531 1532 1532 1533 1534 1534 1535 1535 1535 1535 1535 1535 1535 1535 1535 1534 1534 1533 1533 1532 1531 1530 1529 1528 1526 1525 1525 1523 1521 1520 1519 1517 1516 1514 1512 1510 1508 1506 1506 1507 1506 1504 1501 1500 1501 1502 1500 1499 1499 1499 1499 1499 1498 1497 1497 1496 1496 1496 1496
1521 1521 1521 1522 1522 1522 1522 1522 1522 1522 1522 1523 1523 1523 1524 1524 1524 1524 1524 1524 1524 1525 1526 1526 1527 1528 1528 1529 1530 1530 1531 1532 1532 1533 1533 1533 1533 1533 1534 1533 1533 1533 1533 1532 1531 1529 1528 1527 1526 1525 1523 1522 1521 1520 1519 1517 1516 1515 1514 1512 1510 1508 1506 1503 1502 1503 1503 1501 1498 1495 1495 1497 1496 1494 1494 1494 1494 1494 1493 1492 1492 1491 1491 1491 1491
1520 1520 1520 1520 1520 1521 1521 1520 1521 1521 1521 1521 1521 1521 1521 1521 1522 1522 1522 1522 1522 1523 1523 1524 1525 1525 1525 1526 1526 1527 1528 1529 1530 1531 1531 1531 1531 1531 1532 1532 1532 1531 1531 1530 1529 1527 1526 1524 1523 1523 1521 1519 1518 1518 1516 1514 1513 1512 1511 1509 1508 1506 1504 1502 1500 1499 1500 1499 1495 1491 1490 1492 1492 1489 1489 1490 1490 1489 1488 1487 1486 1486 1486 1486 1486
1519 1518 1519 1519 1519 1519 1519 1519 1519 1519 1519 1519 1519 1519 1519 1519 1520 1520 1520 1520 1520 1520 1521 1521 1522 1522 1523 1523 1524 1525 1526 1527 1527 1528 1528 1529 1529 1529 1529 1530 1530 1529 1528 1527 1526 1525 1524 1522 1521 1521 1520 1518 1516 1515 1514 1512 1510 1509 1507 1506 1505 1503 1501 1500 1497 1496 1496 1496 1493 1488 1485 1487 1488 1485 1484 1486 1486 1484 1483 1482 1481 1481 1481 1482 1481
1517 1517 1517 1517 1517 1518 1517 1517 1517 1517 1517 1517 1517 1517 1517 1517 1518 1518 1518 1518 1517 1518 1518 1518 1519 1520 1520 1521 1522 1523 1524 1525 1525 1525 1526 1526 1527 1526 1526 1527 1527 1527 1526 1525 1524 1522 1521 1520 1519 1518 1518 1516 1514 1513 1512 1510 1508 1506 1504 1502 1501 1499 1497 1496 1494 1492 1493 1493 1491 1486 1481 1482 1485 1482 1479 1481 1481 1479 1479 1478 1478 1478 1478 1477 1477
1516 1516 1516 1516 1516 1516 1516 1516 1515 1515 1515 1515 1515 1515 1515 1515 1515 1515 1515 1515 1515 1515 1515 1516 1516 1517 1518 1519 1520 1521 1522 1523 1523 1523 1523 1524 1524 1524 1524 1524 1524 1524 1523 1522 1521 1520 1519 1518 1516 1515 1514 1513 1511 1510 1509 1507 1505 1504 1502 1500 1498 1496 1494 1491 1489 1489 1489 1489 1489 1484 1478 1478 1480 1478 1476 1477 1477 1475 1475 1475 1474 1475 1474 1473 1473
1515 1515 1514 1514 1514 1514 1514 1514 1514 1514 1514 1514 1513 1513 1513 1513 1513 1513 1513 1513 1513 1513 1513 1513 1514 1515 1516 1518 1519 1520 1521 1521 1521 1521 1521 1521 1521 1521 1521 1521 1521 1521 1520 1519 1518 1517 1516 1515 1514 1512 1511 1509 1508 1506 1505 1504 1502 1500 1498 1496 1495 1494 1490 1487 1485 1484 1484 1484 1484 1482 1476 1473 1476 1475 1473 1473 1473 1471 1471 1472 1471 1471 1471 1470 1470
1513 1513 1513 1512 1512 1512 1512 1512 1512 1512 1512 1512 1512 1511 1511 1511 1511 1511 1511 1510 1510 1510 1510 1511 1512 1513 1515 1516 1516 1517 1518 1518 1519 1519 1519 1519 1519 1518 1518 1518 1517 1518 1518 1517 1516 1515 1513 1512 1511 1509 1508 1506 1505 1503 1501 1500 1498 1496 1494 1491 1491 1490 1486 1482 1480 1479 1479 1479 1479 1479 1474 1470 1471 1471 1469 1469 1469 1467 1467 1468 1468 1468 1468 1467 1467
1512 1511 1511 1510 1510 1510 1510 1510 1510 1510 1510 1510 1510 1509 1509 1509 1509 1509 1509 1509 1508 1508 1509 1509 1510 1512 1513 1513 1514 1515 1515 1516 1516 1517 1517 1517 1516 1515 1515 1515 1514 1515 1514 1514 1513 1512 1511 1509 1508 1506 1504 1503 1501 1500 1498 1497 1495 1493 1491 1488 1487 1485 1483 1480 1477 1474 1474 1474 1475 1475 1471 1468 1468 1468 1466 1464 1463 1463 1464 1464 1464 1465 1465 1465 1464
1509 1509 1509 1509 1508 1508 1508 1508 1508 1508 1508 1508 1508 1508 1508 1508 1507 1507 1507 1507 1507 1507 1508 1508 1509 1510 1511 1512 1513 1513 1514 1514 1515 1515 1514 1514 1513 1512 1512 1512 1511 1511 1511 1510 1508 1507 1506 1505 1503 1502 1500 1499 1497 1496 1494 1493 1492 1490 1488 1486 1484 1482 1479 1477 1475 1472 1469 1469 1471 1472 1469 1466 1466 1466 1464 1462 1459 1458 1459 1460 1461 1462 1462 1462 1462